TimeEDT,TemperatureF,Dew PointF,Humidity,Sea Level PressureIn,VisibilityMPH,Wind Direction,Wind SpeedMPH,Gust SpeedMPH,PrecipitationIn,Events,Conditions,WindDirDegrees,DateUTC
12:33 AM,51.8,48.2,88,30.07,10.0,Calm,Calm,-,N/A,,Partly Cloudy,0,2013-07-22 04:33:00
12:52 AM,51.1,50.0,96,30.07,10.0,Calm,Calm,-,N/A,,Partly Cloudy,0,2013-07-22 04:52:00
1:29 AM,48.2,48.2,100,30.06,1.5,Calm,Calm,-,N/A,,Mostly Cloudy,0,2013-07-22 05:29:00
1:31 AM,50.0,48.2,94,30.06,0.8,Calm,Calm,-,N/A,,Mist,0,2013-07-22 05:31:00
1:40 AM,50.0,50.0,100,30.06,0.2,Calm,Calm,-,N/A,Fog,Fog,0,2013-07-22 05:40:00
1:52 AM,51.1,51.1,100,30.06,0.5,Calm,Calm,-,N/A,Fog,Fog,0,2013-07-22 05:52:00
2:04 AM,48.2,48.2,100,30.06,1.5,Calm,Calm,-,N/A,,Overcast,0,2013-07-22 06:04:00
2:11 AM,50.0,48.2,94,30.06,2.0,Calm,Calm,-,N/A,,Overcast,0,2013-07-22 06:11:00
2:13 AM,50.0,48.2,94,30.06,1.2,Calm,Calm,-,N/A,,Overcast,0,2013-07-22 06:13:00
2:18 AM,50.0,48.2,94,30.06,0.2,Calm,Calm,-,N/A,Fog,Fog,0,2013-07-22 06:18:00
2:52 AM,51.1,51.1,100,30.06,0.2,Calm,Calm,-,N/A,Fog,Fog,0,2013-07-22 06:52:00
3:15 AM,50.0,50.0,100,30.06,1.0,Calm,Calm,-,N/A,,Mist,0,2013-07-22 07:15:00
3:23 AM,50.0,50.0,100,30.06,0.5,Calm,Calm,-,N/A,Fog,Fog,0,2013-07-22 07:23:00
3:38 AM,50.0,50.0,100,30.06,0.2,Calm,Calm,-,N/A,Fog,Fog,0,2013-07-22 07:38:00
3:45 AM,50.0,50.0,100,30.06,0.2,Calm,Calm,-,N/A,Fog,Fog,0,2013-07-22 07:45:00
3:52 AM,50.0,50.0,100,30.06,0.2,Calm,Calm,-,N/A,Fog,Fog,0,2013-07-22 07:52:00
4:44 AM,50.0,50.0,100,30.06,0.2,Calm,Calm,-,N/A,Fog,Fog,0,2013-07-22 08:44:00
4:52 AM,50.0,50.0,100,30.06,0.5,Calm,Calm,-,N/A,Fog,Fog,0,2013-07-22 08:52:00
5:00 AM,50.0,50.0,100,30.06,0.2,Calm,Calm,-,N/A,Fog,Fog,0,2013-07-22 09:00:00
5:52 AM,50.0,50.0,100,30.07,0.2,Calm,Calm,-,N/A,Fog,Fog,0,2013-07-22 09:52:00
6:52 AM,51.1,51.1,100,30.07,0.2,Calm,Calm,-,N/A,Fog,Fog,0,2013-07-22 10:52:00
7:25 AM,53.6,53.6,100,30.07,0.8,Calm,Calm,-,N/A,,Mist,0,2013-07-22 11:25:00
7:39 AM,53.6,53.6,100,30.07,1.5,Calm,Calm,-,N/A,,Overcast,0,2013-07-22 11:39:00
7:44 AM,53.6,53.6,100,30.07,3.0,Calm,Calm,-,N/A,,Overcast,0,2013-07-22 11:44:00
7:52 AM,54.0,54.0,100,30.08,7.0,Calm,Calm,-,N/A,,Mostly Cloudy,0,2013-07-22 11:52:00
8:02 AM,53.6,53.6,100,30.07,9.0,Calm,Calm,-,N/A,,Scattered Clouds,0,2013-07-22 12:02:00
8:52 AM,61.0,54.0,78,30.07,10.0,North,3.5,-,N/A,,Clear,350,2013-07-22 12:52:00
9:52 AM,66.9,55.0,66,30.05,10.0,Calm,Calm,-,N/A,,Clear,0,2013-07-22 13:52:00
10:52 AM,72.0,55.9,57,30.04,10.0,SSW,4.6,-,N/A,,Clear,200,2013-07-22 14:52:00
11:52 AM,75.9,57.9,54,30.03,10.0,South,8.1,-,N/A,,Clear,190,2013-07-22 15:52:00
12:52 PM,75.0,59.0,57,30.03,10.0,SSE,8.1,-,N/A,,Mostly Cloudy,160,2013-07-22 16:52:00
1:52 PM,75.9,62.1,62,30.01,10.0,South,8.1,-,N/A,,Mostly Cloudy,170,2013-07-22 17:52:00
2:52 PM,73.9,61.0,64,30.00,10.0,SE,3.5,-,N/A,,Overcast,140,2013-07-22 18:52:00
3:52 PM,75.9,62.1,62,29.98,10.0,South,5.8,-,N/A,,Scattered Clouds,170,2013-07-22 19:52:00
4:52 PM,75.9,63.0,64,29.96,10.0,South,5.8,-,N/A,,Mostly Cloudy,180,2013-07-22 20:52:00
5:52 PM,75.0,64.0,69,29.95,10.0,North,-9999.0,-,N/A,,Clear,0,2013-07-22 21:52:00
6:52 PM,73.0,64.0,73,29.95,10.0,North,-9999.0,-,N/A,,Clear,0,2013-07-22 22:52:00
7:52 PM,69.1,63.0,81,29.94,10.0,North,-9999.0,-,N/A,,Clear,0,2013-07-22 23:52:00
8:52 PM,66.9,63.0,87,29.95,10.0,North,-9999.0,-,N/A,,Clear,0,2013-07-23 00:52:00
9:52 PM,63.0,62.1,97,29.95,10.0,North,-9999.0,-,N/A,,Clear,0,2013-07-23 01:52:00
10:52 PM,63.0,61.0,93,29.94,10.0,North,-9999.0,-,N/A,,Partly Cloudy,0,2013-07-23 02:52:00
11:52 PM,62.1,60.1,93,29.92,8.0,North,-9999.0,-,N/A,,Clear,0,2013-07-23 03:52:00